Flag for China Weather past 2 weeks in Kashgar, Xinjiang, China

Now
66 °F

Sunny.


Feels Like: 66 °F
Forecast: 64 / 89 °F
Wind: 13 mph from Northwest

Location: Kashi Airport

Current Time: May 6, 2015 at 9:33:51 AM

Latest Report: May 6, 2015 at 9:00 AM


Visibility: 10 mi

Pressure: 29.92 "Hg

Humidity: 18%

Dew point: 21 °F

Location of KashgarLocation

Historic Weather in Kashgar — Graph

°F

Kashgar temperature yesterday

Maximum temperature yesterday: 88 °F (at 5:00 PM)
Minimum temperature yesterday: 64 °F (at 5:00 AM)
Average temperature yesterday: 75 °F

Past Weeks' High & Low Weather Summary

 TemperatureHumidityPressure
High88 °F (May 5, 5:00 PM)58% (Apr 21, 8:00 AM)30.24 "Hg (Apr 21, 8:00 AM)
Low50 °F (Apr 21, 8:00 AM)3% (Apr 28, 3:00 PM)29.71 "Hg (Apr 26, 8:00 PM)
Average68 °F19%30.03 "Hg
* Reported Apr 21 8:00 AM — May 6 8:00 AM, Kashgar, Weather by CustomWeather, © 2015

Note: Actual official high and low records may vary slightly from our data, if they occured in-between our weather recording intervals... More about our weather records

Advertising

Kashgar weather history for previous 24 hours

 ConditionsComfort  
Time TempWeatherWind HumidityBarometerVisibility
8:00 AM
Wed, May 6
64 °FSunny.15 mph19%29.92 "Hg10 mi
7:00 AM64 °FClear.13 mph21%29.89 "Hg10 mi
6:00 AM64 °FClear.8 mph21%29.92 "Hg10 mi
5:00 AM66 °FClear.10 mph21%29.92 "Hg10 mi
4:00 AM64 °FClear.10 mph22%29.92 "Hg10 mi
3:00 AM68 °FClear.8 mph20%29.95 "Hg10 mi
2:00 AM72 °FClear.10 mph16%29.95 "Hg10 mi
1:00 AM73 °FClear.8 mph12%29.95 "Hg10 mi
12:00 AM70 °FClear.6 mph15%29.95 "Hg10 mi
11:00 PM
Tue, May 5
77 °FClear.13 mph11%29.95 "Hg10 mi
10:00 PM79 °FClear.22 mph10%29.92 "Hg10 mi
9:00 PM81 °FSunny.20 mph9%29.89 "Hg10 mi
8:00 PM82 °FPassing clouds.22 mph10%29.89 "HgN/A
7:00 PM82 °FScattered clouds.24 mph10%29.86 "HgN/A
6:00 PM86 °FScattered clouds.15 mph9%29.86 "HgN/A
5:00 PM88 °FPassing clouds.15 mph7%29.86 "HgN/A
4:00 PM86 °FPassing clouds.8 mph9%29.92 "HgN/A
3:00 PM84 °FPassing clouds.10 mph9%29.92 "HgN/A
2:00 PM82 °FPassing clouds.8 mph9%29.98 "HgN/A
1:00 PM81 °FPassing clouds.8 mph11%29.98 "HgN/A
12:00 PM79 °FSunny.15 mph12%30.01 "Hg10 mi
11:00 AM75 °FSunny.13 mph15%30.01 "Hg10 mi
10:00 AM70 °FSunny.15 mph20%30.01 "Hg10 mi
9:00 AM66 °FSunny.15 mph21%30.01 "Hg10 mi
Weather by CustomWeather, © 2015

See weather overviewHow to use our weather pages